QPF
0.00 0.00 0.00 0.00 0.00 0.00 0.00 0.00 0.00 0.00 0.00 0.00 0.00 0.00 0.00 0.00 0.00 0.00 0.00 0.00 0.00 0.00 0.00 0.00 0.00 0.00 0.00 0.00 0.00 0.00 0.00 0.00 0.00 0.00 0.00 0.00 0.00 0.00 0.00 0.00 0.00 0.00 0.00 0.00 0.00 0.00 0.00 0.00 0.00 0.00 0.01 0.01 0.00 0.00
0.00 0.00 0.00 0.00 0.00 0.00 0.00 0.00 0.00 0.00 0.00 0.00 0.00 0.00 0.00 0.00 0.00 0.00 0.00 0.00 0.00 0.00 0.00 0.00 0.00 0.00 0.00 0.00 0.00 0.00 0.00 0.00 0.00 0.00 0.00 0.00 0.00 0.00 0.00 0.00 0.00 0.00 0.00 0.00 0.00 0.01 0.01 0.00 0.01 0.01 0.00 0.00 0.00 0.00
0.00 0.00 0.00 0.00 0.00 0.00 0.00 0.00 0.00 0.00 0.00 0.00 0.00 0.00 0.00 0.00 0.00 0.00 0.00 0.00 0.00 0.00 0.00 0.00 0.00 0.00 0.00 0.00 0.00 0.00 0.00 0.00 0.00 0.00 0.00 0.00 0.00 0.00 0.00 0.00 0.00 0.00 0.00 0.00 0.00 0.01 0.00 0.00 0.00 0.00 0.00 0.00 0.00 0.00
0.00 0.00 0.00 0.00 0.00 0.00 0.00 0.00 0.00 0.00 0.00 0.00 0.00 0.00 0.00 0.00 0.00 0.00 0.00 0.00 0.00 0.00 0.00 0.00 0.00 0.00 0.00 0.00 0.00 0.00 0.00 0.00 0.00 0.00 0.00 0.00 0.00 0.00 0.00 0.00 0.00 0.00 0.00 0.00 0.00 0.00 0.00 0.00 0.00 0.00 0.00 0.00 0.00 0.00
0.00 0.00 0.00 0.00 0.00 0.00 0.00 0.00 0.00 0.00 0.00 0.00 0.00 0.00 0.00 0.00 0.00 0.00 0.00 0.00 0.00 0.00 0.00 0.00 0.00 0.00 0.00 0.00 0.00 0.00 0.00 0.00 0.00 0.00 0.00 0.00 0.00 0.00 0.00 0.00 0.00 0.00 0.00 0.00 0.00 0.00 0.00 0.00 0.00 0.00 0.00 0.00 0.00 0.00
0.00 0.00 0.00 0.00 0.00 0.00 0.00 0.00 0.00 0.00 0.00 0.00 0.00 0.00 0.00 0.00 0.00 0.00 0.00 0.00 0.00 0.00 0.00 0.00 0.00 0.00 0.00 0.00 0.00 0.00 0.00 0.00 0.00 0.00 0.00 0.00 0.00 0.00 0.00 0.00 0.00 0.00 0.00 0.00 0.00 0.00 0.00 0.00 0.00 0.00 0.00 0.00 0.00 0.00
0.00 0.00 0.00 0.00 0.00 0.00 0.00 0.00 0.00 0.00 0.00 0.00 0.00 0.00 0.00 0.00 0.00 0.00 0.00 0.00 0.00 0.00 0.00 0.00 0.00 0.00 0.00 0.00 0.00 0.00 0.00 0.00 0.00 0.00 0.00 0.00 0.00 0.00 0.00 0.00 0.00 0.00 0.00 0.00 0.00 0.00 0.00 0.00 0.00 0.00 0.00 0.00 0.00 0.00
0.00 0.00 0.00 0.00 0.00 0.00 0.00 0.00 0.00 0.00 0.00 0.00 0.00 0.00 0.00 0.00 0.00 0.00 0.00 0.00 0.00 0.00 0.00 0.00 0.00 0.00 0.00 0.00 0.00 0.00 0.00 0.00 0.00 0.00 0.00 0.00 0.00 0.00 0.00 0.00 0.00 0.00 0.00 0.00 0.00 0.00 0.00 0.00 0.00 0.00 0.00 0.00 0.00 0.00
0.00 0.00 0.00 0.00 0.00 0.00 0.00 0.00 0.00 0.00 0.00 0.00 0.00 0.00 0.00 0.00 0.00 0.00 0.00 0.00 0.00 0.00 0.00 0.00 0.00 0.00 0.00 0.00 0.00 0.00 0.00 0.00 0.00 0.00 0.00 0.00 0.00 0.00 0.00 0.00 0.00 0.00 0.00 0.00 0.00 0.00 0.00 0.00 0.00 0.00 0.00 0.00 0.00 0.00
0.00 0.00 0.00 0.00 0.00 0.00 0.00 0.00 0.00 0.00 0.00 0.00 0.00 0.00 0.00 0.00 0.00 0.00 0.00 0.00 0.00 0.00 0.00 0.00 0.00 0.00 0.00 0.00 0.00 0.00 0.00 0.00 0.00 0.00 0.00 0.00 0.00 0.00 0.00 0.00 0.00 0.00 0.00 0.00 0.00 0.00 0.00 0.00 0.00 0.00 0.00 0.00 0.00 0.00
0.00 0.00 0.00 0.00 0.00 0.00 0.00 0.00 0.00 0.00 0.00 0.00 0.00 0.00 0.00 0.00 0.00 0.00 0.00 0.00 0.00 0.00 0.00 0.00 0.00 0.00 0.00 0.00 0.00 0.00 0.00 0.00 0.00 0.00 0.00 0.00 0.00 0.00 0.00 0.00 0.00 0.00 0.00 0.00 0.00 0.00 0.00 0.00 0.00 0.00 0.00 0.00 0.00 0.00
0.00 0.00 0.00 0.00 0.00 0.00 0.00 0.00 0.00 0.00 0.00 0.00 0.00 0.00 0.00 0.00 0.00 0.00 0.00 0.00 0.00 0.00 0.00 0.00 0.00 0.00 0.00 0.00 0.00 0.00 0.00 0.00 0.00 0.00 0.00 0.00 0.00 0.00 0.00 0.00 0.00 0.00 0.00 0.00 0.00 0.00 0.00 0.00 0.00 0.00 0.00 0.00 0.00 0.00
0.00 0.00 0.00 0.00 0.00 0.00 0.00 0.00 0.00 0.00 0.00 0.00 0.00 0.00 0.00 0.00 0.00 0.00 0.00 0.00 0.00 0.00 0.00 0.00 0.00 0.00 0.00 0.00 0.00 0.00 0.00 0.00 0.00 0.00 0.00 0.00 0.00 0.00 0.00 0.00 0.00 0.00 0.00 0.00 0.00 0.00 0.00 0.00 0.00 0.00 0.00 0.00 0.00 0.00
0.00 0.00 0.00 0.00 0.00 0.00 0.00 0.00 0.00 0.00 0.00 0.00 0.00 0.00 0.00 0.00 0.00 0.00 0.00 0.00 0.00 0.00 0.00 0.00 0.00 0.00 0.00 0.00 0.00 0.00 0.00 0.00 0.00 0.00 0.00 0.00 0.00 0.00 0.00 0.00 0.00 0.00 0.00 0.00 0.00 0.00 0.00 0.00 0.00 0.00 0.00 0.00 0.00 0.00
0.00 0.00 0.00 0.00 0.00 0.00 0.00 0.00 0.00 0.00 0.00 0.00 0.00 0.00 0.00 0.00 0.00 0.00 0.00 0.00 0.00 0.00 0.00 0.00 0.00 0.00 0.00 0.00 0.00 0.00 0.00 0.00 0.00 0.00 0.00 0.00 0.00 0.00 0.00 0.00 0.00 0.00 0.00 0.00 0.00 0.00 0.00 0.00 0.00 0.00 0.00 0.00 0.00 0.00
0.00 0.00 0.00 0.00 0.00 0.00 0.00 0.00 0.00 0.00 0.00 0.00 0.00 0.00 0.00 0.00 0.00 0.00 0.00 0.00 0.00 0.00 0.00 0.00 0.00 0.00 0.00 0.00 0.00 0.00 0.00 0.00 0.00 0.00 0.00 0.00 0.00 0.00 0.00 0.00 0.00 0.00 0.00 0.00 0.00 0.00 0.00 0.00 0.00 0.00 0.00 0.00 0.00 0.00
0.00 0.00 0.00 0.00 0.00 0.00 0.00 0.00 0.00 0.00 0.00 0.00 0.00 0.00 0.00 0.00 0.00 0.00 0.00 0.00 0.00 0.00 0.00 0.00 0.00 0.00 0.00 0.00 0.00 0.00 0.00 0.00 0.00 0.00 0.00 0.00 0.00 0.00 0.00 0.00 0.00 0.00 0.00 0.00 0.00 0.00 0.00 0.00 0.00 0.00 0.00 0.00 0.00 0.00
0.00 0.00 0.00 0.00 0.00 0.00 0.00 0.00 0.00 0.00 0.00 0.00 0.00 0.00 0.00 0.00 0.00 0.00 0.00 0.00 0.00 0.00 0.00 0.00 0.00 0.00 0.00 0.00 0.00 0.00 0.00 0.00 0.00 0.00 0.00 0.00 0.00 0.00 0.00 0.00 0.00 0.00 0.00 0.00 0.00 0.00 0.00 0.00 0.00 0.00 0.00 0.00 0.00 0.00
0.00 0.00 0.00 0.00 0.00 0.00 0.00 0.00 0.00 0.00 0.00 0.00 0.00 0.00 0.00 0.00 0.00 0.00 0.00 0.00 0.00 0.00 0.00 0.00 0.00 0.00 0.00 0.00 0.00 0.00 0.00 0.00 0.00 0.00 0.00 0.00 0.00 0.00 0.00 0.00 0.00 0.00 0.00 0.00 0.00 0.00 0.00 0.00 0.00 0.00 0.00 0.00 0.00 0.00
0.00 0.00 0.00 0.00 0.00 0.00 0.00 0.00 0.00 0.00 0.00 0.00 0.00 0.00 0.00 0.00 0.00 0.00 0.00 0.00 0.00 0.00 0.00 0.00 0.00 0.00 0.00 0.00 0.00 0.00 0.00 0.00 0.00 0.00 0.00 0.00 0.00 0.00 0.00 0.00 0.00 0.00 0.00 0.00 0.00 0.00 0.00 0.00 0.00 0.00 0.00 0.00 0.00 0.00
0.01 0.02 0.00 0.00 0.00 0.00 0.00 0.00 0.00 0.00 0.00 0.00 0.00 0.00 0.00 0.00 0.00 0.00 0.00 0.00 0.00 0.00 0.00 0.00 0.00 0.00 0.00 0.00 0.00 0.00 0.00 0.00 0.00 0.00 0.00 0.00 0.00 0.00 0.00 0.00 0.00 0.00 0.00 0.00 0.00 0.00 0.00 0.00 0.00 0.00 0.00 0.00 0.00 0.00
0.01 0.02 0.00 0.00 0.00 0.00 0.00 0.00 0.00 0.00 0.00 0.00 0.00 0.00 0.00 0.00 0.00 0.00 0.00 0.00 0.00 0.00 0.00 0.00 0.00 0.00 0.00 0.00 0.00 0.00 0.00 0.00 0.00 0.00 0.00 0.00 0.00 0.00 0.00 0.00 0.00 0.00 0.00 0.00 0.00 0.00 0.00 0.00 0.00 0.00 0.00 0.00 0.00 0.00
0.00 0.00 0.00 0.00 0.00 0.00 0.00 0.00 0.00 0.00 0.00 0.00 0.00 0.00 0.00 0.00 0.00 0.00 0.00 0.00 0.00 0.00 0.00 0.00 0.00 0.00 0.00 0.00 0.00 0.00 0.00 0.00 0.00 0.00 0.00 0.00 0.00 0.00 0.00 0.00 0.00 0.00 0.00 0.00 0.00 0.00 0.00 0.00 0.00 0.00 0.00 0.00 0.00 0.00
0.00 0.00 0.00 0.00 0.00 0.00 0.00 0.00 0.00 0.00 0.00 0.00 0.00 0.00 0.00 0.00 0.00 0.00 0.00 0.00 0.00 0.00 0.00 0.00 0.00 0.00 0.00 0.00 0.00 0.00 0.00 0.00 0.00 0.00 0.00 0.00 0.00 0.00 0.00 0.00 0.00 0.00 0.00 0.00 0.00 0.00 0.00 0.00 0.00 0.00 0.00 0.00 0.00 0.00
0.01 0.00 0.00 0.00 0.00 0.00 0.00 0.01 0.00 0.00 0.00 0.00 0.00 0.00 0.00 0.00 0.00 0.00 0.00 0.00 0.00 0.00 0.00 0.00 0.00 0.00 0.00 0.00 0.00 0.00 0.00 0.00 0.00 0.00 0.00 0.00 0.00 0.00 0.00 0.00 0.00 0.00 0.00 0.00 0.00 0.00 0.00 0.00 0.00 0.00 0.00 0.00 0.00 0.00
0.00 0.00 0.00 0.00 0.00 0.00 0.00 0.00 0.00 0.00 0.00 0.00 0.00 0.00 0.00 0.00 0.00 0.00 0.00 0.00 0.00 0.00 0.00 0.00 0.00 0.00 0.00 0.00 0.00 0.00 0.00 0.00 0.00 0.00 0.00 0.00 0.00 0.00 0.00 0.00 0.00 0.00 0.00 0.00 0.00 0.00 0.00 0.00 0.00 0.00 0.00 0.00 0.00 0.00
0.00 0.00 0.00 0.00 0.00 0.00 0.00 0.00 0.00 0.00 0.00 0.00 0.00 0.00 0.00 0.00 0.00 0.00 0.00 0.00 0.00 0.00 0.00 0.00 0.00 0.00 0.00 0.00 0.00 0.00 0.00 0.00 0.00 0.00 0.00 0.00 0.00 0.00 0.00 0.00 0.00 0.00 0.00 0.00 0.00 0.00 0.00 0.00 0.00 0.00 0.00 0.00 0.00 0.00
0.00 0.00 0.00 0.00 0.00 0.00 0.00 0.00 0.00 0.00 0.00 0.00 0.00 0.00 0.00 0.00 0.00 0.00 0.00 0.00 0.00 0.00 0.00 0.00 0.00 0.00 0.00 0.00 0.00 0.00 0.00 0.00 0.00 0.00 0.00 0.00 0.00 0.00 0.00 0.00 0.00 0.00 0.00 0.00 0.00 0.00 0.00 0.00 0.00 0.00 0.00 0.00 0.00 0.00
0.00 0.00 0.00 0.00 0.00 0.00 0.00 0.00 0.00 0.00 0.00 0.00 0.00 0.00 0.00 0.00 0.00 0.00 0.00 0.00 0.00 0.00 0.00 0.00 0.00 0.00 0.00 0.00 0.00 0.00 0.00 0.00 0.00 0.00 0.00 0.00 0.00 0.00 0.00 0.00 0.00 0.00 0.00 0.00 0.00 0.00 0.00 0.00 0.00 0.00 0.00 0.00 0.00 0.00
0.00 0.00 0.00 0.00 0.00 0.00 0.00 0.00 0.00 0.00 0.00 0.00 0.00 0.00 0.00 0.00 0.00 0.00 0.00 0.00 0.00 0.00 0.00 0.00 0.00 0.00 0.00 0.00 0.00 0.00 0.00 0.00 0.00 0.00 0.00 0.00 0.00 0.00 0.00 0.00 0.00 0.00 0.00 0.00 0.00 0.00 0.00 0.00 0.00 0.00 0.00 0.00 0.00 0.00
0.00 0.00 0.00 0.00 0.00 0.00 0.00 0.00 0.00 0.00 0.00 0.00 0.00 0.00 0.00 0.00 0.00 0.00 0.00 0.00 0.00 0.00 0.00 0.00 0.00 0.00 0.00 0.00 0.00 0.00 0.00 0.00 0.00 0.00 0.00 0.00 0.00 0.00 0.00 0.00 0.00 0.00 0.00 0.00 0.00 0.00 0.00 0.00 0.00 0.00 0.00 0.00 0.00 0.00
0.00 0.00 0.00 0.00 0.00 0.00 0.00 0.00 0.00 0.00 0.00 0.00 0.00 0.00 0.00 0.00 0.00 0.00 0.00 0.00 0.00 0.00 0.00 0.00 0.00 0.00 0.00 0.00 0.00 0.00 0.00 0.00 0.00 0.00 0.00 0.00 0.00 0.00 0.00 0.00 0.00 0.00 0.00 0.00 0.00 0.00 0.00 0.00 0.00 0.00 0.00 0.00 0.00 0.00
0.00 0.00 0.00 0.00 0.00 0.00 0.00 0.00 0.00 0.00 0.00 0.00 0.00 0.00 0.00 0.00 0.00 0.00 0.00 0.00 0.00 0.00 0.00 0.00 0.00 0.00 0.00 0.00 0.00 0.00 0.00 0.00 0.00 0.00 0.00 0.00 0.00 0.00 0.00 0.00 0.00 0.00 0.00 0.00 0.00 0.00 0.00 0.00 0.00 0.00 0.00 0.00 0.00 0.00
MSLP
1023.76 1024.24 1024.69 1024.92 1025.21 1025.54 1025.67 1025.74 1025.82 1025.76 1025.69 1025.44 1025.18 1024.90 1024.64 1024.41 1024.26 1024.76 1026.51 1026.46 1026.54 1027.59 1027.94 1027.68 1027.47 1027.43 1027.25 1027.46 1027.81 1026.70 1026.89 1026.78 1026.99 1028.10 1028.99 1029.60 1029.82 1029.75 1029.41 1029.08 1028.45 1027.62 1027.32 1027.28 1027.41 1028.21 1029.72 1029.11 1027.97 1026.89 1028.80 1028.04 1027.37 1026.60
1023.82 1024.26 1024.86 1025.05 1025.37 1025.75 1025.94 1026.12 1026.21 1026.13 1026.16 1026.00 1025.79 1025.62 1025.30 1025.10 1024.93 1024.99 1026.63 1026.91 1026.93 1027.49 1028.13 1027.71 1027.22 1027.01 1027.13 1027.18 1027.62 1027.64 1028.39 1028.59 1029.13 1029.45 1030.23 1030.40 1031.13 1030.98 1030.56 1030.35 1029.40 1029.44 1029.86 1029.63 1029.65 1031.13 1031.13 1030.47 1029.80 1029.24 1028.92 1028.33 1027.64 1026.93
1023.83 1024.36 1024.84 1025.19 1025.59 1025.94 1026.17 1026.43 1026.58 1026.55 1026.58 1026.43 1026.29 1026.15 1025.81 1025.71 1025.45 1025.65 1027.09 1027.90 1027.64 1028.60 1028.50 1028.04 1027.59 1027.06 1026.61 1026.89 1027.05 1027.80 1028.10 1028.42 1028.87 1029.34 1030.18 1031.11 1031.69 1031.92 1031.87 1031.58 1031.07 1030.72 1030.37 1030.66 1031.12 1031.44 1031.24 1030.66 1030.12 1029.66 1028.99 1028.45 1027.84 1027.17
1023.85 1024.54 1024.86 1025.34 1025.78 1026.09 1026.36 1026.70 1026.91 1026.92 1026.94 1026.87 1026.77 1026.62 1026.38 1026.27 1026.06 1026.22 1027.77 1028.64 1028.72 1029.51 1029.92 1029.33 1028.06 1027.89 1027.42 1026.98 1027.06 1027.42 1028.09 1028.59 1029.03 1029.40 1030.73 1031.75 1031.97 1031.88 1032.40 1032.27 1031.68 1031.71 1031.11 1031.37 1031.60 1031.42 1031.04 1030.65 1030.33 1030.06 1029.62 1028.95 1028.23 1027.55
1023.87 1024.58 1024.95 1025.47 1025.97 1026.30 1026.57 1026.91 1027.19 1027.30 1027.27 1027.22 1027.21 1027.14 1027.10 1027.11 1027.12 1027.30 1028.12 1029.00 1028.95 1029.67 1030.57 1030.07 1029.06 1028.44 1028.12 1027.74 1027.96 1028.05 1028.55 1029.45 1030.42 1031.02 1031.93 1032.62 1032.51 1032.41 1032.41 1032.32 1032.39 1032.05 1031.98 1031.66 1031.73 1031.37 1031.34 1030.73 1030.22 1029.99 1029.84 1029.52 1028.91 1028.43
1023.93 1024.49 1025.04 1025.60 1026.06 1026.48 1026.78 1027.07 1027.38 1027.61 1027.61 1027.55 1027.54 1027.45 1027.44 1027.55 1027.59 1027.91 1028.83 1028.96 1028.96 1029.41 1029.83 1030.86 1030.32 1029.53 1028.89 1028.69 1028.99 1029.30 1029.76 1030.46 1031.16 1032.13 1032.93 1032.69 1032.33 1032.58 1033.22 1032.87 1032.30 1031.64 1031.32 1031.21 1031.07 1030.57 1030.41 1030.05 1029.89 1029.77 1029.72 1029.67 1029.48 1028.86
1023.89 1024.37 1025.03 1025.58 1026.11 1026.58 1026.96 1027.21 1027.54 1027.80 1027.84 1027.85 1027.91 1027.75 1027.72 1027.83 1028.26 1028.96 1029.44 1029.49 1029.03 1029.34 1030.19 1031.51 1031.14 1030.12 1029.83 1029.76 1030.10 1030.39 1030.61 1031.30 1031.61 1032.44 1033.16 1032.92 1032.52 1032.27 1032.94 1032.60 1031.82 1031.17 1030.68 1030.48 1030.28 1030.19 1030.02 1029.82 1029.68 1029.41 1029.36 1029.43 1029.63 1029.47
1023.75 1024.38 1025.04 1025.51 1026.10 1026.74 1027.08 1027.38 1027.70 1027.98 1028.01 1028.10 1028.20 1028.22 1028.29 1028.38 1028.89 1029.32 1029.68 1029.26 1029.22 1029.99 1030.66 1031.96 1032.01 1031.23 1030.63 1031.08 1031.50 1031.42 1031.70 1031.77 1032.37 1032.92 1033.15 1033.06 1032.73 1032.76 1032.68 1031.86 1031.10 1030.65 1030.44 1030.15 1029.89 1029.71 1029.70 1029.61 1029.46 1029.37 1029.31 1029.23 1029.22 1029.40
1023.51 1024.44 1025.15 1025.52 1026.04 1026.76 1027.27 1027.59 1027.81 1028.15 1028.24 1028.35 1028.51 1028.57 1028.88 1029.18 1030.01 1030.15 1029.65 1029.55 1029.67 1030.56 1031.56 1032.07 1032.51 1032.13 1031.48 1031.95 1032.14 1032.16 1032.20 1032.83 1032.73 1033.03 1033.17 1033.06 1033.01 1032.43 1031.65 1031.18 1030.62 1030.22 1030.04 1029.95 1029.93 1029.83 1029.78 1029.77 1029.81 1029.62 1029.44 1029.36 1029.45 1029.51
1023.27 1024.34 1025.18 1025.64 1026.12 1026.81 1027.36 1027.87 1028.00 1028.23 1028.56 1028.74 1029.09 1029.45 1030.10 1030.43 1029.97 1029.89 1030.10 1030.26 1030.78 1031.62 1031.54 1032.13 1032.47 1032.45 1032.42 1032.55 1033.06 1033.34 1033.07 1033.67 1033.28 1033.52 1033.02 1032.91 1032.36 1031.45 1030.76 1030.39 1030.09 1029.89 1029.66 1029.63 1029.63 1029.66 1029.69 1029.74 1029.73 1029.74 1029.78 1029.62 1029.43 1029.49
1023.08 1024.14 1025.05 1025.75 1026.15 1026.80 1027.40 1027.97 1028.26 1028.51 1028.84 1029.31 1030.02 1030.62 1030.57 1030.13 1030.44 1031.25 1031.92 1032.08 1032.48 1032.44 1032.15 1032.10 1031.93 1032.15 1032.37 1032.72 1033.38 1033.66 1033.69 1033.60 1033.77 1033.39 1033.21 1033.19 1032.28 1030.93 1030.14 1029.99 1029.74 1029.60 1029.48 1029.29 1029.20 1029.25 1029.29 1029.38 1029.50 1029.66 1029.62 1029.50 1029.46 1029.60
1022.86 1023.89 1024.90 1025.78 1026.34 1026.75 1027.41 1027.93 1028.40 1028.87 1029.36 1029.21 1029.57 1030.28 1030.62 1031.20 1031.67 1032.21 1032.90 1032.68 1032.50 1031.92 1031.84 1031.86 1031.84 1031.73 1032.25 1032.22 1032.81 1033.56 1033.55 1033.55 1033.36 1033.20 1033.28 1033.00 1031.32 1030.09 1029.85 1029.65 1029.46 1029.40 1029.32 1029.26 1029.17 1029.12 1029.19 1029.28 1029.38 1029.49 1029.57 1029.57 1029.56 1029.57
1022.71 1023.66 1024.78 1025.61 1026.38 1026.88 1027.49 1027.85 1028.34 1028.71 1028.90 1029.27 1029.76 1030.81 1031.26 1032.18 1032.34 1032.38 1032.28 1032.07 1031.71 1031.29 1031.32 1031.49 1031.92 1031.83 1032.19 1032.27 1032.93 1033.22 1033.29 1033.43 1033.24 1033.12 1032.97 1031.71 1030.25 1029.60 1029.37 1029.30 1029.29 1029.24 1029.24 1029.24 1029.18 1029.15 1029.15 1029.29 1029.28 1029.40 1029.63 1029.59 1029.53 1029.68
1022.57 1023.57 1024.64 1025.51 1026.23 1026.83 1027.63 1028.01 1028.33 1028.93 1029.04 1029.60 1030.21 1031.14 1031.28 1031.81 1031.18 1030.60 1030.54 1030.35 1030.05 1030.15 1030.61 1030.90 1031.79 1031.76 1032.07 1032.29 1032.62 1033.03 1032.97 1033.03 1033.20 1033.26 1031.91 1030.43 1029.38 1028.97 1028.93 1028.99 1029.13 1029.08 1029.04 1029.06 1029.11 1029.18 1029.30 1029.41 1029.40 1029.40 1029.51 1029.59 1029.71 1029.84
1022.41 1023.57 1024.62 1025.60 1026.22 1026.81 1027.59 1028.10 1028.44 1029.05 1029.20 1029.68 1030.13 1030.33 1030.41 1029.97 1029.93 1029.93 1029.89 1029.98 1029.91 1029.91 1030.36 1030.93 1031.44 1031.68 1032.09 1032.34 1032.49 1032.63 1032.75 1032.56 1032.16 1031.37 1030.29 1029.01 1028.59 1028.55 1028.67 1028.81 1028.87 1028.95 1028.92 1028.98 1029.02 1029.05 1029.15 1029.30 1029.41 1029.49 1029.45 1029.49 1029.58 1029.84
1022.47 1023.90 1024.63 1025.28 1026.09 1026.86 1027.64 1028.27 1028.78 1029.15 1029.35 1029.51 1029.80 1029.80 1029.77 1029.81 1029.76 1029.81 1029.69 1029.75 1029.71 1029.87 1030.13 1030.58 1031.34 1031.80 1031.86 1031.87 1032.24 1032.15 1031.94 1031.27 1030.26 1029.79 1028.89 1028.60 1028.31 1028.13 1028.15 1028.18 1028.29 1028.38 1028.62 1028.77 1028.91 1028.91 1028.97 1029.09 1029.13 1029.16 1029.23 1029.44 1029.61 1029.88
1021.99 1022.95 1023.75 1025.02 1026.12 1027.06 1027.65 1028.29 1029.02 1029.25 1029.24 1029.30 1029.22 1029.07 1029.24 1029.19 1029.05 1029.07 1029.12 1029.20 1029.26 1029.81 1029.96 1030.35 1031.09 1031.12 1031.49 1031.40 1031.31 1030.96 1030.16 1029.30 1028.85 1028.70 1028.35 1028.19 1027.88 1027.68 1027.69 1027.89 1028.06 1028.24 1028.46 1028.61 1028.73 1028.71 1028.75 1028.73 1028.87 1029.06 1029.19 1029.25 1029.52 1029.77
1021.82 1022.51 1023.36 1024.66 1025.92 1027.25 1028.13 1028.34 1029.00 1029.07 1029.00 1028.83 1028.95 1028.76 1028.97 1028.72 1028.65 1028.73 1028.63 1028.83 1029.21 1029.35 1029.47 1029.56 1029.87 1030.50 1030.35 1030.36 1029.70 1028.82 1028.55 1028.42 1028.16 1028.10 1028.00 1027.68 1027.50 1027.47 1027.55 1027.58 1027.69 1027.91 1028.05 1028.16 1028.23 1028.30 1028.50 1028.65 1028.82 1028.86 1028.75 1028.94 1029.35 1029.68
1021.11 1022.22 1023.28 1024.30 1025.29 1026.64 1027.91 1028.66 1028.80 1028.66 1028.40 1028.45 1028.45 1028.48 1028.62 1028.34 1028.04 1027.95 1028.14 1028.33 1028.45 1028.61 1028.82 1028.99 1029.10 1028.93 1028.48 1028.19 1027.89 1027.81 1027.99 1028.04 1027.88 1027.59 1027.38 1027.12 1027.10 1027.10 1027.14 1027.25 1027.36 1027.56 1027.61 1027.63 1027.77 1027.84 1027.78 1027.80 1028.00 1028.07 1028.33 1028.75 1029.12 1029.32
1021.32 1022.35 1023.22 1024.22 1024.82 1026.24 1027.51 1028.13 1028.23 1028.11 1028.11 1027.93 1027.98 1028.12 1028.16 1027.94 1027.62 1027.62 1027.89 1028.21 1028.37 1028.49 1028.57 1028.18 1027.25 1026.97 1026.95 1026.71 1026.72 1026.82 1026.84 1026.99 1027.35 1027.50 1027.18 1026.87 1026.67 1026.75 1026.75 1026.81 1026.90 1026.83 1027.12 1027.24 1027.29 1027.42 1027.60 1027.72 1027.58 1027.52 1027.80 1028.18 1028.63 1028.83
1021.92 1022.93 1024.00 1024.24 1025.74 1026.10 1026.59 1027.07 1027.51 1027.61 1027.51 1027.60 1027.22 1027.54 1027.67 1027.76 1027.78 1027.72 1027.69 1027.62 1028.18 1027.66 1026.83 1026.09 1025.68 1025.55 1025.53 1025.53 1025.55 1025.68 1025.95 1026.24 1026.51 1026.42 1026.32 1026.39 1026.14 1026.30 1026.40 1026.47 1026.52 1026.72 1026.97 1026.95 1027.08 1027.07 1027.33 1027.28 1026.79 1026.83 1027.21 1027.45 1027.60 1027.95
1021.04 1022.72 1024.02 1025.13 1025.79 1026.22 1026.26 1026.20 1026.45 1027.01 1027.39 1027.00 1027.14 1027.14 1027.37 1027.57 1027.55 1027.04 1026.71 1026.92 1026.35 1025.31 1024.88 1024.31 1023.88 1024.35 1024.65 1024.74 1024.68 1024.92 1024.72 1025.02 1025.08 1025.39 1025.56 1025.69 1025.84 1025.91 1025.83 1025.85 1026.23 1026.26 1026.26 1026.25 1026.35 1026.33 1026.16 1025.90 1026.04 1026.34 1026.71 1026.79 1027.12 1027.54
1020.90 1022.62 1024.00 1024.81 1025.51 1025.71 1025.50 1025.46 1026.17 1026.38 1026.63 1026.55 1026.60 1026.82 1026.81 1026.80 1026.23 1025.94 1025.81 1024.90 1023.98 1022.90 1022.59 1022.46 1022.21 1022.54 1022.88 1022.83 1023.36 1023.59 1023.72 1024.16 1024.45 1024.55 1024.62 1024.71 1024.64 1024.58 1024.82 1024.88 1025.00 1025.40 1025.30 1024.99 1025.07 1025.33 1025.43 1025.08 1025.39 1025.71 1025.91 1026.39 1026.73 1027.17
1020.80 1022.17 1022.95 1023.56 1023.78 1024.21 1024.61 1024.69 1025.27 1025.66 1025.63 1025.75 1025.91 1025.94 1025.81 1025.47 1025.31 1025.26 1024.54 1023.18 1021.62 1021.18 1021.16 1020.89 1021.32 1021.85 1022.26 1022.52 1022.69 1022.50 1022.52 1022.84 1023.10 1023.14 1023.23 1023.67 1023.76 1023.67 1023.76 1023.79 1023.84 1023.83 1023.81 1023.81 1024.07 1024.24 1024.35 1024.50 1024.64 1024.98 1025.32 1025.63 1026.08 1026.56
1020.24 1021.72 1021.98 1021.79 1021.86 1022.61 1022.94 1023.42 1024.05 1024.30 1024.34 1024.53 1024.77 1024.61 1024.42 1024.47 1024.72 1024.02 1022.99 1021.28 1020.51 1020.10 1019.98 1020.12 1020.47 1020.69 1021.07 1021.23 1021.38 1021.39 1021.27 1021.78 1022.07 1022.11 1021.84 1022.34 1022.33 1022.51 1022.67 1022.62 1022.55 1022.39 1022.57 1023.16 1023.44 1023.46 1023.42 1023.52 1023.76 1024.09 1024.41 1024.74 1025.10 1025.54
1018.52 1018.67 1018.84 1018.78 1019.83 1020.59 1020.83 1021.73 1022.48 1022.89 1023.41 1023.81 1023.62 1023.51 1023.68 1024.03 1023.97 1022.68 1021.17 1019.20 1018.97 1018.97 1018.96 1019.16 1019.42 1019.89 1020.11 1019.99 1020.14 1020.19 1020.23 1020.54 1020.89 1021.03 1020.51 1021.02 1021.13 1021.29 1021.39 1021.66 1021.56 1021.03 1021.28 1021.46 1021.90 1022.14 1022.25 1022.36 1022.65 1023.00 1023.35 1023.58 1023.88 1024.31
1016.41 1016.26 1016.68 1016.96 1017.57 1018.32 1019.48 1020.09 1021.11 1021.73 1022.23 1022.21 1022.27 1022.91 1023.10 1023.05 1022.09 1020.46 1018.36 1017.90 1017.89 1017.29 1017.37 1017.55 1018.17 1018.72 1018.85 1019.11 1019.17 1019.17 1019.29 1019.62 1019.78 1019.42 1019.32 1019.52 1019.64 1019.77 1019.97 1020.08 1019.87 1019.49 1019.79 1020.13 1020.47 1020.70 1020.90 1021.13 1021.42 1021.67 1021.96 1022.33 1022.61 1022.99
1013.68 1014.40 1015.17 1016.26 1017.11 1017.49 1018.44 1019.17 1019.84 1020.30 1020.17 1019.98 1020.57 1021.09 1021.05 1020.48 1019.06 1018.02 1017.23 1016.73 1016.56 1016.67 1016.85 1017.13 1017.49 1017.87 1018.21 1018.31 1018.46 1018.77 1019.05 1019.19 1019.33 1019.36 1019.31 1019.26 1019.06 1018.88 1018.78 1018.77 1018.70 1018.82 1018.91 1019.04 1019.30 1019.55 1019.79 1019.97 1020.27 1020.50 1020.78 1021.00 1021.25 1021.59
1012.57 1012.89 1014.43 1015.60 1016.34 1016.74 1017.05 1017.39 1017.52 1017.56 1017.81 1018.31 1018.42 1018.54 1017.77 1016.80 1016.30 1016.63 1016.47 1016.38 1016.45 1016.84 1017.17 1017.39 1017.56 1017.69 1018.04 1018.32 1018.43 1018.50 1018.81 1019.04 1019.41 1019.21 1018.87 1018.64 1018.46 1017.97 1017.74 1017.76 1017.89 1017.98 1018.12 1018.28 1018.25 1018.39 1018.57 1018.88 1019.18 1019.40 1019.49 1019.69 1019.87 1020.34
1011.39 1011.95 1013.18 1014.56 1015.38 1015.75 1015.58 1015.54 1016.34 1016.56 1016.35 1016.19 1016.03 1016.13 1016.06 1015.77 1015.49 1015.40 1015.85 1016.36 1016.51 1016.64 1016.67 1016.69 1016.82 1017.48 1017.73 1017.92 1017.90 1018.16 1017.99 1018.07 1018.08 1018.03 1017.87 1017.69 1017.19 1016.78 1016.74 1016.89 1017.05 1017.08 1017.22 1017.47 1017.60 1017.83 1018.19 1018.47 1018.67 1018.82 1019.12 1019.15 1019.41 1019.81
1010.42 1011.46 1012.63 1013.64 1014.62 1014.70 1014.66 1015.15 1015.38 1015.74 1016.12 1015.93 1015.65 1015.87 1015.40 1015.61 1015.04 1014.81 1015.00 1015.08 1015.40 1015.90 1016.43 1016.36 1016.86 1016.94 1017.01 1016.96 1017.12 1017.26 1017.27 1016.73 1016.56 1016.53 1016.45 1016.22 1016.26 1016.32 1016.18 1016.08 1016.10 1016.29 1016.56 1016.80 1017.05 1017.34 1017.55 1017.77 1017.84 1017.91 1018.06 1018.18 1018.29 1018.52
1010.28 1011.13 1012.07 1013.65 1014.35 1014.63 1014.91 1015.10 1015.74 1015.91 1016.06 1015.89 1015.84 1015.89 1015.86 1015.71 1014.92 1014.32 1013.40 1014.05 1014.88 1015.13 1014.53 1014.80 1015.22 1014.90 1015.10 1015.15 1015.13 1015.09 1014.70 1014.83 1015.20 1015.30 1015.51 1015.63 1015.54 1015.30 1015.27 1015.38 1015.56 1015.76 1016.01 1016.34 1016.55 1016.71 1016.79 1016.85 1016.90 1016.97 1017.01 1017.11 1017.15 1017.31
1010.46 1010.98 1011.86 1012.81 1013.86 1014.17 1014.58 1014.87 1015.36 1015.85 1016.00 1016.01 1015.68 1015.43 1015.25 1015.01 1014.18 1013.07 1012.22 1011.85 1012.11 1012.42 1012.67 1012.79 1012.86 1012.92 1013.36 1013.65 1013.83 1013.82 1013.91 1013.98 1014.10 1014.31 1014.32 1014.24 1014.17 1014.18 1014.37 1014.67 1015.00 1015.27 1015.52 1015.78 1015.99 1016.05 1016.12 1016.19 1016.20 1016.09 1015.98 1015.93 1015.87 1015.93
Thickness
5483 5482 5480 5479 5478 5477 5477 5478 5478 5481 5483 5486 5489 5492 5495 5496 5496 5492 5475 5473 5464 5439 5442 5438 5430 5418 5407 5394 5376 5397 5395 5391 5386 5377 5366 5353 5361 5349 5352 5357 5355 5371 5365 5375 5376 5359 5344 5360 5370 5368 5350 5361 5368 5372
5481 5480 5477 5477 5475 5474 5474 5473 5473 5476 5478 5480 5483 5486 5489 5490 5490 5489 5475 5471 5466 5452 5443 5438 5434 5428 5420 5413 5393 5387 5386 5384 5365 5360 5357 5358 5354 5345 5360 5345 5366 5361 5357 5355 5353 5341 5344 5351 5355 5357 5358 5364 5369 5375
5479 5477 5475 5473 5471 5470 5470 5468 5468 5471 5474 5475 5478 5481 5485 5485 5486 5484 5472 5466 5462 5444 5446 5435 5434 5431 5428 5419 5411 5395 5388 5387 5383 5371 5356 5353 5355 5336 5331 5341 5355 5355 5360 5342 5340 5343 5337 5346 5353 5357 5361 5365 5371 5375
5478 5475 5473 5471 5469 5467 5466 5464 5463 5466 5469 5471 5473 5476 5480 5481 5482 5480 5468 5462 5456 5440 5423 5432 5436 5431 5427 5425 5418 5411 5401 5389 5382 5378 5362 5352 5360 5355 5341 5344 5347 5344 5355 5352 5346 5350 5353 5352 5351 5352 5358 5362 5368 5375
5476 5474 5471 5469 5466 5464 5461 5460 5459 5462 5465 5466 5469 5471 5473 5474 5474 5474 5468 5459 5457 5446 5428 5430 5433 5433 5428 5425 5419 5413 5404 5391 5375 5366 5356 5354 5355 5353 5348 5350 5340 5342 5343 5332 5323 5349 5345 5349 5356 5357 5355 5357 5362 5366
5473 5471 5468 5465 5463 5460 5457 5456 5456 5458 5461 5462 5465 5467 5469 5469 5470 5468 5453 5460 5457 5451 5435 5418 5427 5430 5428 5425 5418 5411 5401 5388 5377 5360 5351 5357 5359 5354 5342 5340 5355 5356 5358 5354 5358 5364 5362 5365 5365 5362 5360 5358 5358 5363
5470 5469 5466 5462 5460 5457 5454 5453 5453 5454 5457 5459 5460 5463 5466 5467 5466 5454 5450 5454 5456 5453 5436 5422 5427 5432 5427 5423 5412 5408 5401 5391 5386 5374 5366 5365 5364 5355 5338 5340 5360 5361 5363 5365 5365 5366 5367 5367 5366 5367 5367 5363 5360 5361
5467 5465 5463 5460 5457 5454 5452 5450 5449 5451 5453 5455 5457 5458 5460 5461 5459 5453 5454 5455 5456 5446 5436 5415 5420 5426 5426 5415 5413 5402 5401 5395 5386 5378 5373 5373 5368 5360 5348 5367 5367 5372 5368 5367 5366 5367 5365 5365 5366 5366 5368 5367 5365 5360
5464 5460 5458 5456 5454 5450 5448 5447 5446 5447 5449 5450 5452 5454 5456 5453 5445 5448 5452 5453 5454 5444 5425 5423 5418 5399 5421 5413 5408 5408 5399 5390 5391 5376 5381 5377 5372 5360 5383 5380 5383 5380 5378 5374 5368 5366 5364 5364 5361 5361 5362 5361 5362 5360
5461 5457 5453 5451 5449 5446 5444 5442 5442 5443 5443 5444 5446 5439 5428 5439 5447 5450 5444 5432 5432 5428 5434 5428 5418 5420 5420 5412 5408 5401 5392 5383 5384 5387 5382 5375 5371 5389 5390 5389 5388 5386 5384 5379 5379 5374 5370 5368 5364 5364 5362 5359 5360 5358
5457 5453 5450 5446 5444 5442 5440 5438 5437 5437 5438 5435 5426 5426 5436 5441 5441 5428 5416 5422 5416 5428 5427 5431 5429 5429 5420 5414 5406 5394 5387 5391 5391 5395 5389 5374 5388 5393 5400 5395 5393 5391 5389 5392 5390 5385 5381 5378 5373 5368 5365 5364 5361 5356
5451 5448 5445 5440 5438 5437 5435 5433 5432 5432 5431 5432 5432 5431 5431 5424 5418 5421 5410 5424 5432 5444 5434 5434 5433 5432 5424 5419 5412 5403 5411 5401 5415 5396 5384 5378 5394 5409 5404 5403 5401 5397 5396 5394 5394 5391 5386 5382 5378 5373 5369 5365 5361 5357
5444 5443 5438 5436 5433 5431 5428 5428 5428 5427 5428 5427 5422 5422 5418 5405 5413 5426 5406 5429 5425 5436 5434 5432 5430 5430 5424 5421 5409 5407 5420 5402 5397 5371 5393 5399 5409 5416 5411 5409 5407 5402 5400 5398 5398 5393 5389 5385 5381 5378 5372 5369 5366 5359
5438 5435 5432 5429 5427 5425 5421 5421 5422 5421 5422 5413 5412 5412 5413 5405 5421 5437 5441 5444 5445 5442 5435 5434 5427 5424 5418 5421 5411 5423 5417 5408 5387 5394 5414 5403 5423 5425 5419 5414 5412 5410 5405 5403 5400 5395 5392 5386 5381 5379 5375 5370 5365 5363
5431 5427 5423 5419 5419 5419 5415 5415 5415 5414 5413 5412 5412 5407 5416 5430 5431 5432 5433 5436 5438 5435 5435 5433 5428 5423 5417 5420 5416 5418 5409 5400 5414 5412 5421 5428 5432 5428 5423 5418 5415 5411 5409 5406 5402 5398 5393 5389 5384 5381 5378 5374 5370 5365
5419 5412 5412 5412 5411 5411 5408 5406 5405 5406 5407 5405 5409 5415 5416 5422 5421 5420 5425 5431 5430 5430 5430 5429 5422 5415 5426 5423 5424 5413 5425 5423 5430 5424 5428 5431 5433 5432 5430 5425 5421 5418 5414 5409 5404 5402 5398 5393 5389 5386 5382 5377 5370 5363
5412 5412 5411 5406 5403 5400 5399 5398 5396 5398 5400 5406 5409 5409 5412 5416 5417 5424 5423 5428 5425 5429 5430 5418 5422 5431 5413 5412 5425 5421 5424 5437 5434 5431 5431 5433 5437 5436 5431 5427 5424 5420 5415 5411 5407 5404 5401 5398 5393 5389 5385 5381 5374 5369
5404 5407 5404 5399 5394 5388 5387 5388 5387 5388 5395 5401 5403 5406 5401 5408 5413 5415 5418 5417 5422 5424 5424 5434 5423 5425 5411 5430 5429 5437 5432 5432 5431 5433 5434 5434 5435 5434 5432 5429 5427 5423 5419 5415 5410 5407 5403 5399 5395 5392 5390 5385 5377 5370
5400 5396 5394 5392 5390 5384 5379 5377 5377 5383 5390 5395 5396 5396 5395 5403 5407 5412 5414 5414 5417 5417 5417 5420 5431 5430 5434 5428 5434 5434 5429 5430 5436 5437 5435 5437 5435 5433 5432 5429 5426 5423 5422 5419 5415 5411 5409 5406 5401 5397 5392 5385 5380 5373
5384 5381 5383 5380 5380 5375 5373 5371 5372 5379 5387 5389 5391 5391 5393 5396 5401 5404 5406 5409 5410 5409 5410 5419 5435 5433 5430 5435 5433 5436 5435 5432 5429 5432 5435 5433 5434 5432 5431 5429 5427 5426 5422 5419 5416 5411 5408 5405 5403 5400 5395 5388 5382 5377
5364 5364 5362 5367 5359 5363 5365 5366 5368 5374 5376 5382 5389 5386 5387 5386 5388 5393 5398 5401 5393 5405 5417 5429 5434 5432 5429 5433 5436 5436 5434 5430 5428 5432 5433 5431 5433 5429 5429 5426 5424 5421 5418 5417 5414 5412 5405 5406 5409 5404 5398 5393 5389 5382
5359 5351 5350 5348 5349 5352 5361 5364 5367 5363 5369 5379 5380 5376 5376 5370 5375 5384 5391 5390 5400 5426 5425 5435 5443 5433 5428 5428 5433 5432 5436 5435 5435 5431 5427 5426 5428 5425 5424 5423 5420 5419 5416 5415 5413 5413 5413 5413 5408 5403 5398 5396 5389 5383
5343 5339 5336 5336 5339 5345 5354 5358 5360 5363 5364 5372 5372 5373 5366 5369 5379 5384 5380 5398 5413 5427 5435 5438 5444 5441 5439 5440 5432 5434 5435 5433 5431 5427 5426 5425 5428 5427 5425 5421 5418 5418 5417 5417 5415 5412 5410 5412 5407 5402 5399 5392 5387 5380
5332 5328 5332 5335 5341 5346 5349 5355 5352 5355 5361 5365 5368 5368 5374 5374 5378 5376 5385 5407 5432 5426 5428 5437 5436 5432 5427 5428 5428 5435 5436 5431 5433 5430 5429 5424 5426 5429 5423 5425 5421 5421 5421 5421 5415 5412 5410 5408 5405 5401 5396 5391 5385 5380
5319 5312 5321 5333 5343 5345 5348 5353 5353 5355 5345 5365 5373 5368 5372 5374 5370 5379 5392 5414 5418 5425 5427 5426 5425 5430 5432 5432 5431 5433 5431 5427 5426 5429 5435 5424 5426 5425 5423 5422 5422 5423 5418 5413 5411 5408 5408 5406 5403 5400 5396 5392 5388 5382
5313 5326 5339 5351 5349 5345 5355 5349 5346 5342 5355 5358 5370 5372 5372 5367 5363 5377 5402 5416 5419 5417 5419 5422 5424 5422 5423 5428 5430 5428 5428 5423 5422 5426 5434 5422 5422 5423 5425 5421 5420 5426 5415 5414 5416 5411 5409 5406 5403 5399 5395 5391 5387 5383
5318 5338 5346 5353 5358 5362 5355 5360 5357 5359 5344 5348 5362 5355 5358 5345 5362 5394 5403 5407 5413 5415 5417 5420 5419 5419 5422 5419 5422 5425 5423 5420 5420 5425 5425 5424 5424 5421 5419 5418 5420 5423 5413 5412 5412 5412 5408 5405 5403 5400 5397 5392 5388 5382
5336 5344 5350 5352 5349 5357 5342 5354 5346 5348 5358 5371 5369 5352 5362 5372 5389 5397 5399 5405 5409 5412 5411 5412 5411 5410 5410 5413 5412 5410 5410 5409 5407 5409 5410 5412 5414 5414 5414 5414 5414 5411 5411 5410 5409 5408 5406 5403 5400 5397 5394 5392 5388 5381
5333 5353 5347 5348 5334 5346 5347 5350 5360 5369 5371 5372 5374 5373 5381 5395 5395 5392 5394 5398 5400 5400 5396 5394 5396 5395 5395 5396 5397 5398 5398 5395 5394 5395 5397 5403 5402 5411 5409 5410 5410 5409 5408 5408 5407 5405 5402 5399 5396 5393 5390 5388 5385 5380
5339 5352 5334 5343 5344 5344 5349 5365 5361 5361 5370 5375 5383 5384 5387 5388 5388 5390 5389 5388 5389 5388 5392 5392 5390 5389 5393 5391 5393 5388 5392 5391 5394 5398 5396 5401 5406 5407 5406 5405 5404 5404 5403 5402 5401 5397 5392 5387 5384 5382 5380 5376 5373 5369
5342 5335 5335 5336 5330 5338 5349 5346 5341 5347 5350 5358 5363 5379 5388 5376 5380 5384 5387 5388 5387 5378 5378 5385 5379 5381 5384 5384 5382 5377 5385 5391 5395 5396 5397 5399 5395 5396 5398 5398 5398 5396 5394 5392 5389 5387 5383 5380 5380 5378 5375 5373 5369 5366
5325 5326 5339 5317 5321 5317 5327 5336 5337 5344 5340 5348 5357 5341 5349 5360 5382 5385 5387 5382 5374 5377 5391 5391 5387 5394 5389 5392 5391 5392 5395 5394 5393 5393 5392 5391 5391 5392 5392 5391 5389 5385 5382 5379 5377 5376 5374 5374 5373 5371 5369 5365 5363 5359
5297 5303 5311 5319 5314 5315 5316 5332 5320 5305 5303 5318 5336 5357 5359 5366 5379 5384 5385 5390 5395 5396 5395 5394 5394 5393 5389 5388 5388 5390 5390 5391 5389 5386 5385 5386 5388 5388 5386 5382 5378 5375 5373 5370 5367 5364 5362 5360 5360 5360 5359 5358 5357 5354